OPS 4682 DEB, 38390

Orbit data source: Space-Track

OPS 4682 DEB, 38390 is space debris in LEO originally from a launch on Sat, 03 Apr 1965 UTC launched from the Air Force Western Test Range (AFWTR). Debris objects in space refer to the collection of defunct objects orbiting the Earth. Examples of debris include non-operational satellites, rocket bodies, and fragments generated from explosions, collisions, or faulty payload assembly.

Loading next visibility...
Identifier
38390, 1965-027CT
Orbit
LEO
Country
Flag of USUS
Related business
Manufacturer
Unknown
Mission
Spacecraft
Bus & Motor
Unknown
Mass
Unknown
Launch date (UTC)
1965-04-03 (61 years ago)
Launch vehicle
Unknown
Launch site
Air Force Western Test Range (AFWTR)
Object type
Payload
Rocket body
Debris
Shape & HBR
Unknown shape, 0.1 m
Radar Cross Section
Small (<0.1 m²)

Expand to show TLE details & history
Last TLE update: 6 days ago

TLE from 6 days ago
0 OPS 4682 DEB
1 38390U 65027CT  25343.78004610  .00000449  00000-0  15136-2 0  9991
2 38390  90.2301 354.9097 0030402 196.2807 163.7340 12.97679355588132
Epoch: 2025-12-09T18:43Z
TLE epoch observation values (Epoch: 2025-12-09T18:43:15.983Z)
Latitude
0.00001°
Longitude
-4.66672°
Altitude
1,296.407 km
Speed
7.198 km/s
True Right ascension
23h 39m 38s
True Declination
0° 00' 00"
Sunlit
Object was in daylight at epoch
Visualization orbit readout
Latitude
Unknown
Longitude
Unknown
Altitude
Unknown
Speed
Unknown
Apparent Right ascension
Unknown
Apparent Declination
Unknown
Sunlit
N/A
Visualization observer readout
Local Sidereal Time
03:26:40
Azimuth
Unknown
Elevation
Unknown
Doppler factor
Unknown
Orbital elements
Apogee altitude
1,291.57 km
Perigee altitude
1,245.076 km
Semi-major axis
7,646.46 km
Eccentricity
0.00304
Inclination
90.2301°
RAAN
354.9097°
Arg. of periapsis
196.2807°
True anomaly
163.83123°
Mean anomaly
163.734°
Eccentric anomaly
163.78265°
Mean motion
3.24603 °/min
Orbital period
110.9 mins
BSTAR
0.0015136
Loading maneuver chart data...
Computing Atmospheric mass density...
Loading historical data...
Loading historical data...
Loading historical data...
Loading historical data...
Loading historical data...
Loading historical data...
Loading historical data...

Documentation

Showing up to 5 results
|